GW0327 Weather Reports


time (UTC)temp
C
wind
direction
speed
KPH
gust
KPH
rain 1hr
cm
rain 24hr
cm
rain mn
cm
humidity
%
barometer
mb
20260503071545 15 79 1.6 4.8 0.00 0.00 0.00 60 1018.9
20260503054550 11 22 4.8 6.4 0.00 0.00 0.00 64 1018.8
20260503053036 11 308 3.2 6.4 0.00 0.00 0.00 63 1018.8
20260503051528 11 338 0.0 4.8 0.00 0.00 0.00 61 1018.8
20260503050043 11 360 4.8 9.7 0.00 0.00 0.00 58 1018.8
20260503044534 11 306 4.8 8.0 0.00 0.00 0.00 63 1018.9
20260503043029 11 9 1.6 6.4 0.00 0.00 0.00 61 1018.8
20260503041549 11 5 4.8 14.5 0.00 0.00 0.00 60 1018.9
20260503040041 11 360 3.2 12.9 0.00 0.00 0.00 59 1018.9
20260503034536 12 313 4.8 14.5 0.00 0.00 0.00 58 1018.8
20260503033100 12 350 9.7 16.1 0.00 0.00 0.00 59 1018.9
20260503031551 12 360 4.8 14.5 0.00 0.00 0.00 60 1019.0
20260503030031 12 285 9.7 14.5 0.00 0.00 0.00 57 1019.0
20260503024551 12 298 6.4 9.7 0.00 0.00 0.00 59 1019.0
20260503023034 11 17 1.6 16.1 0.00 0.00 0.00 61 1019.2
20260503021546 11 9 8.0 14.5 0.00 0.00 0.00 62 1019.2
20260503020046 11 360 3.2 4.8 0.00 0.00 0.00 61 1019.4
20260503014541 12 360 3.2 9.7 0.00 0.00 0.00 60 1019.4
20260503013033 12 5 9.7 17.7 0.00 0.00 0.00 59 1019.5
20260503011543 12 360 8.0 12.9 0.00 0.00 0.00 58 1019.6
20260503010031 12 360 4.8 12.9 0.00 0.00 0.00 59 1019.7
20260503004545 12 342 6.4 14.5 0.00 0.00 0.00 60 1019.9
20260503003034 12 12 6.4 12.9 0.00 0.00 0.00 61 1020.0
20260503001530 12 20 1.6 4.8 0.00 0.00 0.00 61 1020.3
20260503000046 12 20 1.6 6.4 0.00 0.00 0.00 59 1020.5
20260502234509 12 346 1.6 9.7 0.00 0.00 0.00 59 1020.7
20260502233100 12 355 6.4 12.9 0.00 0.00 0.00 59 1020.8
20260502231556 12 355 4.8 9.7 0.00 0.00 0.00 59 1020.9
20260502230034 12 347 6.4 9.7 0.00 0.00 0.00 59 1021.0
20260502224547 12 47 1.6 6.4 0.00 0.00 0.00 57 1021.0
20260502223045 12 69 0.0 3.2 0.00 0.00 0.00 57 1021.1
20260502221532 13 360 1.6 4.8 0.00 0.00 0.00 57 1021.1
20260502220046 13 92 1.6 6.4 0.00 0.00 0.00 56 1021.2
20260502214541 13 22 11.3 17.7 0.00 0.00 0.00 57 1021.1
20260502213035 13 61 0.0 6.4 0.00 0.00 0.00 55 1021.1
20260502211541 13 34 3.2 6.4 0.00 0.00 0.00 56 1021.1
20260502210045 13 5 0.0 3.2 0.00 0.00 0.00 55 1021.1
20260502204546 14 16 3.2 6.4 0.00 0.00 0.00 54 1021.1
20260502203033 14 19 3.2 14.5 0.00 0.00 0.00 52 1021.1
20260502201522 14 36 4.8 8.0 0.00 0.00 0.00 54 1021.1
20260502200041 15 360 1.6 3.2 0.00 0.00 0.00 52 1021.3
20260502194537 15 360 1.6 8.0 0.00 0.00 0.00 50 1021.1
20260502193029 15 15 6.4 9.7 0.00 0.00 0.00 51 1021.0
20260502191541 15 360 4.8 8.0 0.00 0.00 0.00 50 1021.1
20260502190034 15 355 4.8 8.0 0.00 0.00 0.00 48 1021.0
20260502184533 16 360 3.2 6.4 0.00 0.00 0.00 47 1020.8
20260502183042 16 42 4.8 6.4 0.00 0.00 0.00 45 1020.8
20260502181536 17 30 3.2 6.4 0.00 0.00 0.00 46 1020.6
20260502163035 20 360 9.7 17.7 0.00 0.00 0.00 41 1020.7
20260502161551 20 182 6.4 14.5 0.00 0.00 0.00 42 1020.8
20260502151542 21 157 4.8 14.5 0.00 0.00 0.00 43 1021.3
20260502123031 20 157 9.7 24.1 0.00 0.00 0.00 46 1023.2
20260502121548 20 119 8.0 14.5 0.00 0.00 0.00 51 1023.4
20260502114534 20 184 8.0 19.3 0.00 0.00 0.00 46 1023.8
20260502113044 19 161 6.4 17.7 0.00 0.00 0.00 54 1023.9
20260502111538 20 171 8.0 14.5 0.00 0.00 0.00 48 1024.2
20260502110029 19 176 8.0 16.1 0.00 0.00 0.00 48 1024.5
20260502104549 19 360 11.3 19.3 0.00 0.00 0.00 53 1024.6
20260502103036 18 201 3.2 16.1 0.00 0.00 0.00 50 1024.9
20260502101550 18 158 9.7 17.7 0.00 0.00 0.00 53 1025.1